TimeEST,TemperatureF,Dew PointF,Humidity,Sea Level PressureIn,VisibilityMPH,Wind Direction,Wind SpeedMPH,Gust SpeedMPH,PrecipitationIn,Events,Conditions,WindDirDegrees,DateUTC
12:54 AM,33.1,28.9,85,29.61,5.0,West,20.7,34.5,0.00,Snow,Light Snow,270,2014-01-12 05:54:00
1:03 AM,32.0,30.0,92,29.58,4.0,West,19.6,38.0,0.00,Snow,Light Snow,280,2014-01-12 06:03:00
1:54 AM,32.0,28.9,88,29.63,9.0,WNW,18.4,27.6,0.01,,Overcast,290,2014-01-12 06:54:00
2:12 AM,32.0,28.9,88,29.60,10.0,West,15.0,28.8,0.00,,Overcast,270,2014-01-12 07:12:00
2:54 AM,30.9,27.0,85,29.66,10.0,West,20.7,27.6,0.00,,Overcast,280,2014-01-12 07:54:00
3:54 AM,30.9,27.0,85,29.67,10.0,West,19.6,31.1,N/A,,Overcast,260,2014-01-12 08:54:00
4:54 AM,30.0,25.0,82,29.72,10.0,West,19.6,38.0,N/A,,Overcast,270,2014-01-12 09:54:00
5:54 AM,28.9,25.0,85,29.75,8.0,West,20.7,27.6,0.00,,Overcast,260,2014-01-12 10:54:00
6:18 AM,28.9,26.1,89,29.72,5.0,West,18.4,26.5,N/A,,Overcast,270,2014-01-12 11:18:00
6:54 AM,28.9,26.1,89,29.80,6.0,West,18.4,-,N/A,,Overcast,270,2014-01-12 11:54:00
7:28 AM,28.9,27.0,92,29.76,4.0,West,18.4,26.5,0.00,Rain,Light Freezing Rain,270,2014-01-12 12:28:00
7:54 AM,28.9,27.0,92,29.83,3.0,West,13.8,27.6,0.00,Rain,Light Freezing Rain,260,2014-01-12 12:54:00
8:24 AM,28.9,27.0,92,29.80,4.0,West,16.1,26.5,0.00,,Overcast,260,2014-01-12 13:24:00
8:52 AM,28.4,26.6,93,29.82,4.0,West,17.3,-,0.00,Rain,Light Freezing Rain,260,2014-01-12 13:52:00
8:54 AM,28.9,27.0,92,29.88,4.0,West,17.3,-,0.00,Rain,Light Freezing Rain,270,2014-01-12 13:54:00
9:11 AM,30.0,27.0,88,29.82,7.0,West,15.0,27.6,0.00,,Overcast,270,2014-01-12 14:11:00
9:21 AM,30.0,27.0,88,29.83,7.0,West,17.3,24.2,0.00,,Overcast,270,2014-01-12 14:21:00
9:35 AM,30.0,27.0,88,29.84,8.0,West,18.4,27.6,0.00,,Overcast,280,2014-01-12 14:35:00
9:51 AM,30.2,26.6,86,29.84,8.0,West,18.4,28.8,0.00,,Overcast,280,2014-01-12 14:51:00
9:54 AM,30.0,27.0,88,29.91,8.0,West,21.9,31.1,0.00,,Overcast,270,2014-01-12 14:54:00
10:12 AM,30.0,27.0,88,29.86,10.0,West,16.1,25.3,N/A,,Overcast,270,2014-01-12 15:12:00
10:35 AM,30.0,27.0,88,29.86,7.0,West,15.0,27.6,0.00,,Overcast,270,2014-01-12 15:35:00
10:54 AM,30.0,27.0,88,29.93,10.0,West,18.4,24.2,0.00,,Overcast,270,2014-01-12 15:54:00
10:58 AM,30.0,27.0,88,29.86,10.0,West,18.4,27.6,N/A,,Overcast,260,2014-01-12 15:58:00
11:13 AM,30.0,27.0,88,29.86,10.0,West,16.1,21.9,N/A,,Overcast,270,2014-01-12 16:13:00
11:42 AM,30.0,27.0,88,29.87,8.0,West,13.8,23.0,N/A,,Overcast,270,2014-01-12 16:42:00
11:54 AM,30.0,28.0,92,29.94,7.0,West,12.7,21.9,N/A,,Overcast,280,2014-01-12 16:54:00
12:45 PM,30.0,27.0,88,29.86,10.0,West,10.4,23.0,N/A,,Overcast,270,2014-01-12 17:45:00
12:54 PM,30.0,27.0,88,29.94,10.0,West,12.7,20.7,N/A,,Overcast,270,2014-01-12 17:54:00
1:54 PM,30.0,28.0,92,29.95,8.0,West,16.1,21.9,N/A,,Overcast,270,2014-01-12 18:54:00
2:54 PM,30.9,28.0,89,29.99,9.0,WSW,10.4,-,N/A,,Overcast,250,2014-01-12 19:54:00
3:27 PM,30.9,27.0,85,29.93,9.0,WSW,10.4,18.4,N/A,,Overcast,250,2014-01-12 20:27:00
3:54 PM,30.9,27.0,85,30.01,9.0,WSW,9.2,-,N/A,,Overcast,250,2014-01-12 20:54:00
4:08 PM,30.9,27.0,85,29.95,10.0,WSW,8.1,-,N/A,,Overcast,240,2014-01-12 21:08:00
5:54 PM,30.9,26.1,82,30.05,10.0,WSW,9.2,-,N/A,,Overcast,250,2014-01-12 22:54:00
6:32 PM,30.9,26.1,82,29.98,10.0,WSW,9.2,-,N/A,,Scattered Clouds,250,2014-01-12 23:32:00
6:54 PM,30.0,26.1,85,30.06,10.0,SW,9.2,-,N/A,,Clear,230,2014-01-12 23:54:00
7:54 PM,30.9,26.1,82,30.06,10.0,SW,10.4,-,N/A,,Clear,230,2014-01-13 00:54:00
8:54 PM,30.9,26.1,82,30.07,10.0,SW,8.1,-,N/A,,Clear,220,2014-01-13 01:54:00
9:54 PM,30.9,26.1,82,30.06,10.0,SW,9.2,-,N/A,,Clear,230,2014-01-13 02:54:00
10:54 PM,32.0,25.0,75,30.06,10.0,South,6.9,-,N/A,,Clear,190,2014-01-13 03:54:00
11:54 PM,34.0,26.1,73,30.05,10.0,SSW,10.4,-,N/A,,Clear,210,2014-01-13 04:54:00